Pine Ridge, SD

3:22 AM MDT on May 30, 2017 (GMT -0600)
Pine Ridge

Weather History for KIEN - June, 2013

Change the Weather History Date:

Wednesday, June 12, 2013

  Actual Average Record
Temperature  
Mean Temperature 59 °F 65 °F  
Max Temperature 68 °F 78 °F 89 °F (2000)
Min Temperature 50 °F 51 °F 36 °F (2002)
Degree Days  
Heating Degree Days 6 3  
Month to date heating degree days 71 53  
Since 1 June heating degree days 71 53  
Since 1 July heating degree days 7144 7180  
Cooling Degree Days 0 3  
Month to date cooling degree days 15 27  
Year to date cooling degree days 32 44  
Since 1 June cooling degree days 15 27  
Growing Degree Days 10 (Base 50)    
Moisture  
Dew Point 53 °F    
Average Humidity 78    
Maximum Humidity 100    
Minimum Humidity 55    
Precipitation  
Precipitation 0.00 in 0.13 in 1.20 in (2001)
Month to date precipitation 0.98 1.42  
Year to date precipitation 8.74 7.66  
Sea Level Pressure  
Sea Level Pressure 30.05 in    
Wind  
Wind Speed 7 mph (NNE)    
Max Wind Speed 18 mph    
Max Gust Speed 24 mph    
Visibility 10 miles    
Events      
T = Trace of Precipitation, MM = Missing Value Source: NWS Daily Summary

Daily Weather History Graph

Daily Weather History Graph

Search for Another Location

Airport or City:

Trip Planner

Search our weather history database for the weather conditions in past years. The results will help you decide how hot, cold, wet, or windy it might be!

Date:

Astronomy

Jun. 12, 2013 Rise Set
Actual Time 5:10 AM MDT 8:29 PM MDT
Civil Twilight 4:35 AM MDT 9:05 PM MDT
Nautical Twilight 3:49 AM MDT 9:50 PM MDT
Astronomical Twilight 2:53 AM MDT 10:47 PM MDT
Moon 8:56 AM MDT (6/12) 11:01 PM MDT (6/12)
Length of Visible Light 16h 30m
Length of Day
15h 19m
Waxing Crescent, 14% of the Moon is Illuminated
Jun 12
Waxing Crescent
Jun 16
First Quarter
Jun 23
Full
Jun 29
Last Quarter
Jul 8
New

Hourly Weather History & Observations

Time (MDT) Temp. Dew Point Humidity Pressure Visibility Wind Dir Wind Speed Gust Speed Precip Events Conditions
12:52 AM 57.9 °F 55.0 °F 90% 29.82 in 10.0 mi North 8.1 mph 19.6 mph N/A   Clear
1:52 AM 57.0 °F 54.0 °F 89% 29.85 in 10.0 mi West 4.6 mph - N/A   Clear
2:52 AM 55.9 °F 54.0 °F 93% 29.88 in 10.0 mi WSW 3.5 mph - N/A   Partly Cloudy
3:52 AM 54.0 °F 53.1 °F 97% 29.89 in 8.0 mi SW 6.9 mph - N/A   Clear
4:52 AM 53.1 °F 52.0 °F 96% 29.93 in 9.0 mi NW 3.5 mph - N/A   Clear
5:52 AM 53.1 °F 52.0 °F 96% 29.95 in 7.0 mi Calm Calm - N/A   Clear
6:52 AM 57.9 °F 55.0 °F 90% 29.95 in 10.0 mi Calm Calm - N/A   Clear
7:52 AM 63.0 °F 57.0 °F 81% 29.97 in 10.0 mi WNW 9.2 mph - N/A   Clear
8:50 AM 64.4 °F 57.2 °F 77% 30.06 in 10.0 mi North 9.2 mph - N/A   Mostly Cloudy
8:52 AM 64.9 °F 57.0 °F 75% 29.99 in 10.0 mi North 8.1 mph - N/A   Mostly Cloudy
9:05 AM 64.4 °F 55.4 °F 73% 30.06 in 10.0 mi NNW 6.9 mph - N/A   Scattered Clouds
9:52 AM 64.9 °F 55.9 °F 73% 30.05 in 10.0 mi NNW 8.1 mph - N/A   Clear
10:52 AM 64.0 °F 55.0 °F 73% 30.06 in 10.0 mi North 10.4 mph 19.6 mph N/A   Overcast
11:04 AM 62.6 °F 55.4 °F 77% 30.12 in 10.0 mi North 16.1 mph 23.0 mph N/A   Overcast
11:21 AM 62.6 °F 55.4 °F 77% 30.13 in 10.0 mi NNE 16.1 mph 24.2 mph N/A   Overcast
11:29 AM 62.6 °F 53.6 °F 72% 30.14 in 10.0 mi North 16.1 mph - N/A   Overcast
11:52 AM 62.1 °F 53.1 °F 72% 30.10 in 10.0 mi North 10.4 mph 19.6 mph N/A   Overcast
12:52 PM 64.0 °F 53.1 °F 67% 30.11 in 10.0 mi NNE 10.4 mph - N/A   Overcast
1:52 PM 64.9 °F 52.0 °F 63% 30.12 in 10.0 mi NE 11.5 mph - N/A   Overcast
2:32 PM 66.2 °F 53.6 °F 64% 30.15 in 10.0 mi ENE 12.7 mph 19.6 mph N/A   Scattered Clouds
2:41 PM 64.4 °F 51.8 °F 64% 30.15 in 10.0 mi NE 10.4 mph - N/A   Mostly Cloudy
2:52 PM 66.0 °F 53.1 °F 63% 30.11 in 10.0 mi ENE 12.7 mph 19.6 mph N/A   Scattered Clouds
3:52 PM 66.0 °F 52.0 °F 60% 30.11 in 10.0 mi ENE 12.7 mph 19.6 mph N/A   Scattered Clouds
4:52 PM 68.0 °F 52.0 °F 56% 30.09 in 10.0 mi ENE 9.2 mph - N/A   Clear
5:52 PM 66.0 °F 53.1 °F 63% 30.09 in 10.0 mi East 10.4 mph - N/A   Mostly Cloudy
6:52 PM 66.0 °F 52.0 °F 60% 30.09 in 10.0 mi East 10.4 mph - N/A   Partly Cloudy
7:52 PM 63.0 °F 51.1 °F 65% 30.08 in 10.0 mi East 8.1 mph - N/A   Clear
8:52 PM 57.9 °F 52.0 °F 81% 30.10 in 10.0 mi East 5.8 mph - N/A   Clear
9:52 PM 53.1 °F 50.0 °F 89% 30.12 in 10.0 mi Calm Calm - N/A   Clear
10:52 PM 54.0 °F 50.0 °F 86% 30.12 in 10.0 mi ENE 6.9 mph - N/A   Clear
11:52 PM 54.0 °F 50.0 °F 86% 30.11 in 10.0 mi ENE 9.2 mph - N/A   Clear